User: anonymous   Login
Location: Unspecified
(0.0000°N, 0.0000°E)
Time: 02:00:52
(UTC+02:00)
Language:

Cosmos 1072 Rocket - Orbit

View from above orbital plane
View from above orbital plane
View from above satellite
View from above satellite

Ground track
Ground track

The orbit data is extracted from the following two-line orbital elements,

1 11239U 79003B   16270.54276039 -.00000045  00000-0 -62478-4 0  9999
2 11239  82.9346 284.2524 0041799  50.7422  58.7826 13.75799296891605
Epoch (UTC): 26 September 2016 13:01:34
Eccentricity: 0.0041799
inclination: 82.9346°
perigee height: 948 km
apogee height: 1009 km
right ascension of ascending node: 284.2524°
argument of perigee: 50.7422°
revolutions per day: 13.75799296
mean anomaly at epoch: 58.7826°
orbit number at epoch: 89160

The dashed part of the orbit path shows where the satellite is in the earth's shadow,  

DLR